Tracking 20241 objects as of 25-Jan-2020
HD Live streaming from Space Station
objects crossing your sky now

COSMOS 2251 DEB

Track COSMOS 2251 DEB now!
10-day predictions


NORAD ID: 33909
Int'l Code: 1993-036DN
Perigee: 549.7 km
Apogee: 591.7 km
Inclination: 74.0 °
Period: 95.9 minutes
Semi major axis: 6941 km
RCS: 0.0366 m2 (small)
Launch date: June 16, 1993
Source: Commonwealth of Independent States (former USSR) (CIS)
Launch site: PLESETSK MISSILE AND SPACE COMPLEX (PKMTR)

Note: This is SATELLITE DEBRIS
aabbcc
Your satellite tracking list
Your tracking list is empty




NASA's NSSDC Master Catalog

Two Line Element Set (TLE):
1 33909U 93036DN  20024.56394367 +.00010605 +00000-0 +82283-3 0  9994
2 33909 074.0495 078.9500 0030281 228.3119 131.5477 15.01080108579513
Source of the keplerian elements: AFSPC